Location: Nag� el Ma?a??a
(24.0667°N, 32.8833°E)
Time: 16:09:28
(UTC+00:00)

Cosmos 1743 - Pass Details

Date: 25 September 2021
Orbit: 509 x 525 km, 82.6° (Epoch: 16 October)

Event Time Altitude Azimuth Distance (km) Brightness Sun altitude
Rises 02:38:26 0° 355° (N) 2,648 6.3 -14.4°
Reaches altitude 10° 02:40:35 10° 355° (N) 1,756 5.4 -14.0°
Maximum altitude 02:44:26 87° 83° (E) 523 2.7 -13.1°
Drops below altitude 10° 02:48:15 10° 175° (S) 1,738 5.4 -12.2°
Sets 02:50:22 0° 175° (S) 2,619 6.3 -11.7°
